Location: Eberbach
(49.4690°N, 8.9930°E)
Time: 20:57:21
(UTC+02:00)

ISS - Pass Details

Date: 06 October 2021
Orbit: 417 x 423 km, 51.6° (Epoch: 27 October)

Event Time Altitude Azimuth Distance (km) Brightness Sun altitude
Rises 19:34:07 0° 286° (WNW) 2,365 1.9 -7.7°
Reaches altitude 10° 19:36:29 10° 271° (W) 1,498 0.8 -8.1°
Maximum altitude 19:39:11 22° 218° (SW) 954 -1.5 -8.5°
Drops below altitude 10° 19:41:52 10° 164° (SSE) 1,493 -1.1 -9.0°
Sets 19:44:14 0° 149° (SSE) 2,354 -0.3 -9.3°
Enters shadow 19:44:19 - 149° (SSE) 2,385 -0.3 -9.4°
